Location: Grand Moustoir
(47.8355°N, 3.3120°W)
Time: 09:54:33
(UTC+00:00)

Cosmos 2278 - Pass Details

Date: 20 January 2020
Orbit: 840 x 853 km, 71.1° (Epoch: 16 February)

Event Time Altitude Azimuth Distance (km) Brightness Sun altitude
Exits shadow 05:59:13 - 217° (SW) 2,879 6.2 -18.9°
Reaches altitude 10° 06:00:18 10° 219° (SW) 2,477 5.9 -18.8°
Maximum altitude 06:05:57 64° 301° (WNW) 942 3.7 -17.8°
Drops below altitude 10° 06:11:38 10° 23° (NNE) 2,491 6.3 -16.9°
Sets 06:14:08 0° 26° (NNE) 3,430 7.1 -16.5°
